Location: Archemont
(49.1579°N, 1.7598°E)
Time: 10:24:03
(UTC+00:00)

USA 215 - Pass Details

Date: 03 February 2023
Orbit: 1102 x 1105 km, 123.0° (Epoch: 27 March)

Event Time Altitude Azimuth Distance (km) Brightness Sun altitude
Rises 18:15:23 0° 148° (SSE) 3,907 5.9 -13.7°
Reaches altitude 10° 18:17:59 10° 154° (SSE) 2,952 5.3 -14.2°
Maximum altitude 18:24:10 44° 226° (SW) 1,478 4.3 -15.2°
Drops below altitude 10° 18:30:23 10° 297° (WNW) 2,966 6.4 -16.2°
Sets 18:33:01 0° 304° (NW) 3,927 7.0 -16.6°
